Regional Weather Roundup
Issued by NWS Upton, NY

Current Version | Previous Version | Graphics & Text | Print | Product List | Glossary Off
Versions: 1 2 3 4 5 6 7 8 9 10 11 12 13 14 15 16 17 18 19 20 21 22 23 24 25 26

000
ASUS41 KOKX 231405
RWROKX

REGIONAL WEATHER ROUNDUP
NATIONAL WEATHER SERVICE NEW YORK NY
1000 AM EDT WED APR 23 2014

NOTE: "FAIR" INDICATES FEW OR NO CLOUDS BELOW 12,000 FEET WITH NO
SIGNIFICANT WEATHER AND/OR OBSTRUCTIONS TO VISIBILITY.

NYZ071-072-176-178-NJZ106-104-231500-
NEW YORK CITY METRO AREA


CITY           SKY/WX    TMP DP  RH WIND       PRES   REMARKS
CENTRAL PARK   PTSUNNY   52  33  48 NW12G21   29.62R
LAGUARDIA APRT PTSUNNY   51  34  52 NW24G30   29.58S
KENNEDY INTL   PTSUNNY   53  33  46 NW26G33   29.58F
NEWARK/LIBERTY PTSUNNY   54  34  46 NW25G35   29.61R
TETERBORO      CLOUDY    53  35  50 NW20G29   29.59S
$$

NYZ177-179-078>081-231500-
LONG ISLAND NEW YORK

CITY           SKY/WX    TMP DP  RH WIND       PRES   REMARKS
FARMINGDALE    MOSUNNY   52  35  52 NW15G24   29.56S
ISLIP          CLOUDY    52  37  56 NW16G23   29.54R
SHIRLEY        LGT RAIN  49  42  77 NW13      29.56R
WESTHAMPTON    CLOUDY    54  41  61 NW14      29.54R
MONTAUK POINT    N/A     50  45  83 W13G20    29.50S
$$

NYZ052-065-067-231500-
HUDSON VALLEY

CITY           SKY/WX    TMP DP  RH WIND       PRES   REMARKS
WHITE PLAINS   PTSUNNY   49  35  58 NW23G32   29.56R
NEWBURGH       PTSUNNY   48  37  66 NW23G35   29.59R
MONTGOMERY     CLOUDY    48  36  63 NW16G23   29.59R
POUGHKEEPSIE   LGT RAIN  48  39  71 NW6       29.58R
ALBANY         LGT RAIN  44  39  82 W12       29.59R
$$

NJZ001-105-106-008-010-013-015-019>022-104-231500-
NEW JERSEY

CITY           SKY/WX    TMP DP  RH WIND       PRES   REMARKS
NEWARK/LIBERTY PTSUNNY   54  34  46 NW25G35   29.61R
TETERBORO      CLOUDY    53  35  50 NW20G29   29.59S
CALDWELL       CLOUDY    49  35  58 NW14G28   29.61S
MORRISTOWN     CLOUDY    50  36  57 NW15G28   29.62R
SOMERVILLE     CLOUDY    50  34  54 NW15G25   29.63R
LINDEN         PTSUNNY   55  36  48 NW20G33   29.63S
SUSSEX         CLOUDY    49  37  63 NW9G23    29.62S
ANDOVER          N/A     46  35  65 NW10G17   29.64R
TRENTON        CLOUDY    50  34  54 NW20G28   29.66R
MILLVILLE      MOSUNNY   53  34  48 NW21G35   29.70R
ATLANTIC CITY  SUNNY     55  34  45 NW23G36   29.65S
WRIGHTSTOWN    CLOUDY    51  34  53 NW17G30   29.65R
TOMS RIVER     CLOUDY    30  30 100 NW10G24   29.65R WCI  21
BELMAR         CLOUDY    52  34  50 NW20G26   29.62R
$$

PAZ047>061-062-071-231500-
EASTERN PENNSYLVANIA

CITY           SKY/WX    TMP DP  RH WIND       PRES   REMARKS
PHILADELPHIA   PTSUNNY   52  30  43 NW21G28   29.71R
ALLENTOWN      CLOUDY    49  34  56 W15G28    29.68R
SCRANTON       CLOUDY    42  34  73 NW17G23   29.70R
$$

CTZ002-004>006-009-010-012-RIZ004-006-007-MAZ004-011-015-231500-
SOUTHERN NEW ENGLAND
 IN CT

CITY           SKY/WX    TMP DP  RH WIND       PRES   REMARKS
BRADLEY INTL   CLOUDY    47  40  76 NW6       29.51S
HARTFORD       CLOUDY    49  39  68 NW6       29.52F
DANBURY        CLOUDY    47  37  68 NW12G18   29.57R
WTRBRY/OXFORD  CLOUDY    46  36  66 NW23G29   29.56S
BRIDGEPORT     CLOUDY    51  41  68 NW14      29.54S
MERIDEN        CLOUDY    49  39  68 NW9       29.53R
NEW HAVEN      CLOUDY    51  40  65 NW8G17    29.53S
CHESTER        PTSUNNY   46  43  87 NW7       29.52R
GROTON         LGT RAIN  51  43  74 NW9       29.48R
WILLIMANTIC    LGT RAIN  46  43  89 NW8       29.49F FOG

 IN RI

CITY           SKY/WX    TMP DP  RH WIND       PRES   REMARKS
PROVIDENCE     TSTM      50  46  86 W10       29.47S FOG
BLOCK ISLAND   CLOUDY    48  43  81 NW10G18   29.46S
WESTERLY       PTSUNNY   50  45  83 N13       29.47S

 IN MA

CITY           SKY/WX    TMP DP  RH WIND       PRES   REMARKS
BOSTON         LGT RAIN  53  48  83 NW7       29.45F
WORCESTER      LGT RAIN  45  43  93 W8        29.48R FOG
WESTFIELD      PTSUNNY   49  40  71 NW12      29.51R
PROVINCETOWN   CLOUDY    48  48 100 MISG      29.45F
NANTUCKET      PTSUNNY   55  48  77 N9        29.42F
$$

ANZ330-335-338-340-345-350-353-355-231500-
COASTAL MARINE OBSERVATIONS


STATION/POSITION TIME  SKY/WX   TEMP    WIND        PRES    VSBY  WAVE
                                AIR SEA DIR/SP/G                  HT/PER
                 (UTC)          (F)     (DEG/KT/KT) (MB)    (MI)  (FT/S)
NY HARB ENTRANCE 1400            48 46  VRB 19/ 23  1001.6
4S FIRE IS       1300               46                N/A           4/ 8
23SW MTP         1400            47 42  290/ 16/ 17  998.6          3/ 9
HUDSON CANYON    1300            48 45  290/ 19/ 23 1000.8          5/ 5
EXECUTION ROCKS  1400            50 46  310/ 19/ 29   N/A
WESTERN LI SOUND 1400            49     310/ 16/ 21   N/A           2/ 3
CENTRAL LI SOUND 1300            46 43  300/  8/ 10   N/A           1/ 3
EASTERN LI SOUND NOT AVBL
ROBBINS REEF     1400            50     320/ 21/ 28   N/A
$$


>>>>>>>>>>>>>>>>>>>>>>>>>>>> KEY <<<<<<<<<<<<<<<<<<<<<<<<<<<
>                                                          <
>     SKY/WX - SKY CONDITION/PRESENT WEATHER               <
>     TMP    - TEMPERATURE IN FAHRENHEIT                   <
>     DP     - DEWPOINT IN FAHRENHEIT                      <
>     RH     - RELATIVE HUMIDITY IN PERCENT                <
>     WIND   - DIRECTION AND SPEED IN MPH                  <
>     PRES   - MEAN SEA LEVEL PRESSURE IN INCHES OF HG     <
>     WCI    - WIND CHILL INDEX                            <
>     VSB    - VISIBILITY IN MILES                         <
>     HX     - HEAT INDEX                                  <
>     TC     - TEMPERATURE IN CELSIUS                      <
>     VRB    - VARIABLE WIND DIRECTION                     <
>                                                          <
>>>>>>>>>>>>>>>>>>>>>>>>>>>> KEY <<<<<<<<<<<<<<<<<<<<<<<<<<<





USA.gov is the U.S. government's official web portal to all federal, state and local government web resources and services.